sat.trackr.live / text

‹ back to catalog

AE1A

NORAD 68487 · 2026-067BZ

PAYLOAD ACTIVE UNKNOWN

§ Identity

Operator
Country
JPN
Launch date
2026-03-30
Launch site
AFWTR
Launch vehicle
Mass (kg)
RCS (m²)

External: N2YO · Heavens-Above · Gunter

§ Orbital elements

Epoch: 2026-05-24T19:38:50.868384Z

Period
96.48 min
Inclination
97.7527°
Eccentricity
0.0001724
Mean motion
14.92473780 rev/d
Perigee alt
589.0 km
Apogee alt
591.4 km
Semi-major
6,968.4 km
B*
3.3200e-4
RAAN
103.4501°
Arg perigee
29.7975°
Mean anomaly
330.3342°
Rev number
824

§ Raw data

AE1A1 68487U 26067BZ  26144.81864431  .00003350  00000+0  33200-3 0  99972 68487  97.7527 103.4501 0001724  29.7975 330.3342 14.92473780  8246

JSON: /api/v1/satellites/68487 · /tle

For live sub-satellite position, see the globe view (requires WebGL).

§ Visibility from observer

Set your observer location to see the next 7 days of passes ≥ 10°. The values pass through the URL so the page stays shareable.

No JS? Fill the form by hand. The geolocation button needs JavaScript.